Regional Weather Roundup
Issued by NWS

Home | Current Version | Previous Version | Graphics & Text | Print | Product List | Glossary Off
Versions: 1 2 3 4 5 6 7 8 9 10 11 12 13 14 15 16 17 18 19 20 21 22 23 24 25 26 27 28 29 30 31 32 33 34 35 36 37 38 39 40 41 42 43 44 45 46 47 48 49 50

016
ASUS43 KLOT 232209
RWRIL

ILLINOIS REGIONAL WEATHER ROUNDUP
NATIONAL WEATHER SERVICE CHICAGO/ROMEOVILLE IL
500 PM CDT SUN JUL 23 2017

NOTE: "FAIR" INDICATES FEW OR NO CLOUDS BELOW 12,000 FEET WITH NO
SIGNIFICANT WEATHER AND/OR OBSTRUCTIONS TO VISIBILITY.

* THESE STATIONS ARE NOT UNDER NWS QUALITY CONTROL. THEY ALSO MAY NOT
  REPORT WEATHER SUCH AS PRECIPITATION OR FOG.

ILZ001-002-007-009-015-016-024-232300-
NORTHWEST ILLINOIS

CITY           SKY/WX    TMP DP  RH WIND       PRES   REMARKS
MOLINE         FAIR      86  64  47 NW21      29.82S HX  87
STERLING*      FAIR      83  69  62 NW21G30   29.80R HX  86
SAVANNA*       FAIR      84  64  50 NW14G22   29.82R HX  85
$$

ILZ003-004-008-010-011-017-018-232300-
NORTH CENTRAL ILLINOIS

CITY           SKY/WX    TMP DP  RH WIND       PRES   REMARKS
ROCKFORD       LGT RAIN  75  70  84 CALM      29.82R
FREEPORT*      FAIR      80  62  54 N10G18    29.83R HX  81
ROCHELLE*      FAIR      84  68  58 W17       29.80R HX  86
DE KALB*       TSTM      70  67  92 N10G20    29.82R
PERU*          FAIR     N/A N/A N/A W17       29.78S
$$

ILZ005-006-012>014-019>023-232300-
NORTHEAST ILLINOIS

CITY           SKY/WX    TMP DP  RH WIND       PRES   REMARKS
CHICAGO-OHARE  TSTM      74  67  78 W9        29.79R
CHICAGO-MIDWAY PTSUNNY   88  59  37 NW13      29.77R THUNDER HX  87
AURORA         CLOUDY    73  67  81 NE21G29   29.81R THUNDER
LANSING*       FAIR      88  64  44 W10       29.77R HX  89
JOLIET*        CLOUDY    87  68  52 SW5       29.77S HX  90
WAUKEGAN       CLOUDY    73  70  90 CALM      29.80R
DUPAGE AIRPORT TSTM      67  65  93 NE14G37   29.82R FOG
WHEELING       TSTM      72  71  97 NW9       29.81R
MORRIS*        FAIR      85  70  59 W7G20     29.76S HX  90
ROMEOVILLE*    PTSUNNY   83  64  52 SW8       29.78R HX  84
NORTHERLY ISL    N/A     79  68  69 MISG        N/A  HX  81
$$

LMZ740>746-232300-
SOUTHERN LAKE MICHIGAN

STATION/POSITION SKY/WX   TEMP    WIND        PRES    VSBY  WAVE
                          AIR SEA DIR/SP/G                  HT/PER
                          (F)     (DEG/KT/KT) (MB)    (MI)  (FT/S)
SOUTHERN BUOY              73 71   10/  6/  8 1008.5R         0
WILMETTE HARBOR            75 75  300/ 12/ 16   N/A           1/ 2
HARRISON CRIB              80      50/  9/ 10   N/A
BURNHAM HARBOR             78                   N/A
CALUMET HARBOR             80      50/  7/  9 1007.8R
BURNS HARBOR               81      70/ 11/ 12 1008.8R
MICHIGAN CITY              78      40/ 11/ 12   N/A
MICHIGAN CITY 6N           78 78   80/  8/ 10   N/A           1
ST. JOSEPH                 77 76   60/ 12/ 14 1008.1          1
$$

ILZ025>027-034>036-040-047-049-050-058-095>099-232300-
WEST-CENTRAL ILLINOIS

CITY           SKY/WX    TMP DP  RH WIND       PRES   REMARKS
QUINCY         FAIR      93  66  40 W10       29.82F HX  96
GALESBURG*     FAIR      86  69  56 W8        29.84F HX  89
MACOMB*        FAIR      88  70  54 NW7       29.85S HX  93
JACKSONVILLE*  PTSUNNY   82  69  65 S7        29.83S HX  85
PITTSFIELD*    FAIR      76  71  83 E8        29.85S
$$

ILZ028>032-037-038-041>044-048-051>054-059>061-232300-
CENTRAL ILLINOIS

CITY           SKY/WX    TMP DP  RH WIND       PRES   REMARKS
PONTIAC        FAIR      87  73  64 W10G18    29.79F HX  94
BLOOMINGTON    FAIR      88  70  55 W12       29.82F HX  93
DECATUR        FAIR      87  69  54 W6        29.83F HX  91
PEORIA         FAIR      90  70  51 W8        29.81F HX  95
LACON*         FAIR      89  69  52 W13G20    29.78F HX  93
LINCOLN*       FAIR      91  73  56 W5        29.81F HX  98
SPRINGFIELD    FAIR      91  76  61 W7        29.83F HX 103
TAYLORVILLE    FAIR      84  77  78 SW8       29.83F HX  94
$$

ILZ033-039-045-046-055>057-062-063-232300-
EAST-CENTRAL ILLINOIS

CITY           SKY/WX    TMP DP  RH WIND       PRES   REMARKS
CHAMPAIGN      FAIR      88  69  53 W8        29.83F HX  92
RANTOUL*       FAIR      90  65  43 W12       29.82F HX  91
MATTOON        FAIR      88  72  58 NW10      29.83F HX  94
PARIS*         FAIR      87  72  61 W10       29.83S HX  92
$$

ILZ079-100>102-232300-
SOUTHWEST ILLINOIS

CITY           SKY/WX    TMP DP  RH WIND       PRES   REMARKS
ALTON          MOSUNNY   88  70  55 W9        29.85F HX  92
BELLEVILLE     FAIR      90  66  45 S7        29.85F HX  92
CAHOKIA*       FAIR      93  66  40 SW5       29.84F HX  96
SPARTA*        FAIR      90  64  43 SW6       29.87F HX  91
$$

ILZ064>066-069>071-074>076-080>082-084>086-088>090-092>094-232300-
SOUTH-CENTRAL ILLINOIS

CITY           SKY/WX    TMP DP  RH WIND       PRES   REMARKS
CARBONDALE     FAIR      88  71  57 NW6       29.86F HX  94
CAIRO*         FAIR      91  69  49 NW3       29.84S HX  95
EFFINGHAM*     FAIR      89  74  62 W8        29.86F HX  98
MARION         MOSUNNY   88  70  55 N10       29.87F HX  92
MT. VERNON     FAIR      87  68  52 W5        29.86F HX  90
CENTRALIA*     FAIR      88  71  57 W5        29.84F HX  94
SALEM*         FAIR      89  68  50 W7        29.85F HX  93
METROPOLIS*    FAIR      90  73  57 N3        29.85F HX  97
$$

ILZ067-068-072-073-078-083-087-091-232300-
SOUTHEAST ILLINOIS

CITY           SKY/WX    TMP DP  RH WIND       PRES   REMARKS
LAWRENCEVILLE  FAIR      86  72  62 W9        29.84F HX  92
FLORA*         FAIR      89  70  53 NW6       29.85F HX  93
FAIRFIELD*     FAIR      87  71  58 CALM      29.84F HX  92
HARRISBURG*    FAIR      88  69  53 N3        29.86S HX  92
ROBINSON*      FAIR      85  73  69 W10       29.84F HX  91
CARMI*         FAIR      85  72  63 W8        29.85F HX  91
$$

ABBREVIATIONS USED IN REMARKS
   TC - TEMPERATURE IN CELSIUS
  WCI - WIND CHILL INDEX
   HX - HEAT INDEX
  VSB - VISIBILITY
$$





USA.gov is the U.S. government's official web portal to all federal, state and local government web resources and services.